GW6292 Weather Reports


time (UTC)temp
F
wind
direction
speed
knots
gust
knots
rain 1hr
in
rain 24hr
in
rain mn
in
humidity
%
barometer
mb
20260505071248 53 23 0.0 0.0 0.00 0.00 0.00 81 1011.4
20260505070746 53 23 0.0 0.0 0.00 0.00 0.00 81 1011.5
20260505070242 53 23 0.0 0.0 0.00 0.00 0.00 81 1011.4
20260505065737 53 24 0.0 0.0 0.00 0.00 0.00 80 1011.3
20260505065235 53 23 0.0 0.0 0.00 0.00 0.00 80 1011.3
20260505064732 53 23 0.0 0.0 0.00 0.00 0.00 80 1011.4
20260505064229 53 24 0.0 0.0 0.00 0.00 0.00 80 1011.5
20260505063727 53 24 0.0 0.0 0.00 0.00 0.00 79 1011.3
20260505063223 53 24 0.0 0.0 0.00 0.00 0.00 79 1011.6
20260505062719 53 24 0.0 0.0 0.00 0.00 0.00 78 1011.6
20260505062217 53 24 0.0 0.0 0.00 0.00 0.00 78 1011.4
20260505061714 53 24 0.0 0.0 0.00 0.00 0.00 78 1011.4
20260505061212 54 23 0.0 0.0 0.00 0.00 0.00 78 1011.6
20260505060709 54 24 0.0 0.0 0.00 0.00 0.00 78 1011.5
20260505060205 54 24 0.0 0.0 0.00 0.00 0.00 77 1011.4
20260505055701 54 24 0.0 0.0 0.00 0.00 0.00 77 1011.5
20260505055158 54 24 0.0 0.9 0.00 0.00 0.00 77 1011.3
20260505054655 54 24 0.0 0.0 0.00 0.00 0.00 77 1011.5
20260505054153 54 23 0.0 0.0 0.00 0.00 0.00 77 1011.3
20260505053650 54 23 0.0 0.0 0.00 0.00 0.00 76 1011.6
20260505053147 55 24 0.0 0.0 0.00 0.00 0.00 76 1011.5
20260505052644 55 23 0.0 0.0 0.00 0.00 0.00 75 1011.6
20260505052141 55 23 0.0 0.0 0.00 0.00 0.00 74 1011.7
20260505051637 55 24 0.0 0.0 0.00 0.00 0.00 74 1011.7
20260505051136 55 24 0.0 0.0 0.00 0.00 0.00 74 1011.7
20260505050633 56 23 0.0 0.0 0.00 0.00 0.00 73 1011.5
20260505050132 56 23 0.0 0.0 0.00 0.00 0.00 73 1011.7
20260505041601 56 23 0.0 0.0 0.00 0.00 0.00 70 1011.6
20260505041059 57 23 0.0 0.0 0.00 0.00 0.00 70 1011.6
20260505040556 57 23 0.0 0.0 0.00 0.00 0.00 70 1011.7
20260505040053 57 23 0.0 0.0 0.00 0.00 0.00 70 1011.5
20260505035549 57 23 0.0 0.9 0.00 0.00 0.00 70 1011.6
20260505035046 57 23 0.0 0.0 0.00 0.00 0.00 69 1011.3
20260505034542 57 23 0.0 0.9 0.00 0.00 0.00 69 1011.5
20260505034039 57 23 0.0 0.0 0.00 0.00 0.00 69 1011.5
20260505033536 57 23 0.0 0.0 0.00 0.00 0.00 68 1011.5
20260505033034 57 23 0.0 0.0 0.00 0.00 0.00 68 1011.6
20260505032532 58 23 0.0 0.0 0.00 0.00 0.00 68 1011.7
20260505032028 58 23 0.0 0.0 0.00 0.00 0.00 68 1011.5
20260505031526 58 23 0.0 0.0 0.00 0.00 0.00 67 1011.4
20260505031022 58 23 0.0 0.0 0.00 0.00 0.00 67 1011.5
20260505030519 58 23 0.0 0.0 0.00 0.00 0.00 66 1011.4
20260505030015 58 23 0.0 0.0 0.00 0.00 0.00 66 1011.5
20260505025511 58 23 0.0 0.0 0.00 0.00 0.00 66 1011.4
20260505025010 59 23 0.0 0.0 0.00 0.00 0.00 65 1011.3
20260505024506 59 23 0.0 0.0 0.00 0.00 0.00 64 1011.3
20260505024004 59 23 0.0 0.0 0.00 0.00 0.00 64 1011.3
20260505023500 59 23 0.0 0.0 0.00 0.00 0.00 63 1011.5
20260505022958 60 23 0.0 0.0 0.00 0.00 0.00 62 1011.4
20260505022455 60 23 0.0 0.0 0.00 0.00 0.00 62 1011.4
20260505021952 60 23 0.0 0.0 0.00 0.00 0.00 62 1011.2
20260505021449 60 23 0.0 0.0 0.00 0.00 0.00 62 1011.5
20260505020944 60 23 0.0 0.0 0.00 0.00 0.00 61 1011.2
20260505020440 60 23 0.0 0.0 0.00 0.00 0.00 60 1011.2
20260505015937 61 23 0.0 0.0 0.00 0.00 0.00 59 1011.2
20260505015434 61 23 0.0 0.0 0.00 0.00 0.00 59 1011.2
20260505014931 62 23 0.0 0.0 0.00 0.00 0.00 58 1011.0
20260505014428 62 23 0.0 0.0 0.00 0.00 0.00 58 1011.0
20260505013925 62 23 0.0 0.0 0.00 0.00 0.00 58 1011.2
20260505013422 62 23 0.0 0.0 0.00 0.00 0.00 58 1010.9
20260505012920 62 23 0.0 0.0 0.00 0.00 0.00 55 1010.9
20260505012418 63 23 0.0 0.0 0.00 0.00 0.00 55 1010.9
20260505011914 64 23 0.0 0.0 0.00 0.00 0.00 53 1010.7
20260505011410 64 23 0.0 0.0 0.00 0.00 0.00 53 1011.0
20260505010907 65 23 0.0 0.0 0.00 0.00 0.00 52 1010.8
20260505010403 65 23 0.0 0.9 0.00 0.00 0.00 50 1010.7
20260505005859 66 23 0.0 0.0 0.00 0.00 0.00 49 1010.7
20260505005356 65 23 1.7 1.7 0.00 0.00 0.00 49 1010.7
20260505004854 66 23 0.0 0.0 0.00 0.00 0.00 49 1010.6
20260505004350 67 23 0.9 0.9 0.00 0.00 0.00 48 1010.5
20260505003847 68 23 0.0 0.9 0.00 0.00 0.00 47 1010.4
20260505003344 68 23 0.0 0.0 0.00 0.00 0.00 44 1010.5
20260505002840 68 23 0.9 1.7 0.00 0.00 0.00 44 1010.4
20260505002337 69 23 0.0 0.9 0.00 0.00 0.00 44 1010.4
20260505001836 69 23 0.9 1.7 0.00 0.00 0.00 41 1010.5
20260505001332 70 23 1.7 2.6 0.00 0.00 0.00 41 1010.4
20260505000829 70 23 1.7 1.7 0.00 0.00 0.00 42 1010.5
20260505000327 70 23 0.9 1.7 0.00 0.00 0.00 41 1010.4
20260504235824 70 23 0.0 0.0 0.00 0.00 0.00 42 1010.4
20260504235321 71 23 1.7 3.5 0.00 0.00 0.00 40 1010.3
20260504234817 71 23 1.7 1.7 0.00 0.00 0.00 40 1010.4
20260504234315 71 23 0.9 1.7 0.00 0.00 0.00 40 1010.3
20260504233811 71 23 0.9 0.9 0.00 0.00 0.00 39 1010.2
20260504233307 71 23 0.9 0.9 0.00 0.00 0.00 39 1010.5
20260504232804 72 23 0.0 0.0 0.00 0.00 0.00 39 1010.3
20260504232303 72 23 0.9 1.7 0.00 0.00 0.00 38 1010.3
20260504231758 71 23 5.2 6.1 0.00 0.00 0.00 38 1010.3
20260504231254 72 23 0.9 1.7 0.00 0.00 0.00 40 1010.2
20260504230750 72 23 0.9 0.9 0.00 0.00 0.00 40 1010.3
20260504230249 72 23 1.7 2.6 0.00 0.00 0.00 39 1010.1
20260504225747 73 23 3.5 3.5 0.00 0.00 0.00 37 1010.2
20260504225243 73 23 0.0 0.0 0.00 0.00 0.00 38 1010.2
20260504224740 73 23 0.9 0.9 0.00 0.00 0.00 36 1010.2
20260504224237 74 23 2.6 3.5 0.00 0.00 0.00 36 1010.1
20260504223733 73 23 0.0 0.9 0.00 0.00 0.00 36 1010.3
20260504223229 73 23 2.6 2.6 0.00 0.00 0.00 36 1010.2
20260504222727 74 23 3.5 5.2 0.00 0.00 0.00 35 1010.3
20260504222223 74 23 4.3 5.2 0.00 0.00 0.00 35 1010.2
20260504221721 75 23 1.7 2.6 0.00 0.00 0.00 34 1010.0
20260504221218 75 23 0.9 1.7 0.00 0.00 0.00 34 1010.0
20260504220714 74 23 0.9 1.7 0.00 0.00 0.00 35 1010.0
20260504220212 75 23 2.6 3.5 0.00 0.00 0.00 34 1010.1
20260504215709 76 23 0.9 1.7 0.00 0.00 0.00 33 1010.0
20260504215206 77 23 0.9 1.7 0.00 0.00 0.00 32 1010.0
20260504214701 77 22 0.0 0.0 0.00 0.00 0.00 31 1010.1
20260504214158 77 22 1.7 2.6 0.00 0.00 0.00 32 1010.1
20260504213655 77 22 3.5 5.2 0.00 0.00 0.00 32 1010.3
20260504213151 77 22 0.9 0.9 0.00 0.00 0.00 31 1010.0
20260504212648 77 22 0.9 1.7 0.00 0.00 0.00 31 1010.0
20260504212144 77 22 1.7 1.7 0.00 0.00 0.00 32 1010.1
20260504211642 77 22 2.6 3.5 0.00 0.00 0.00 31 1010.2
20260504211138 77 22 1.7 2.6 0.00 0.00 0.00 31 1010.1
20260504210636 77 22 3.5 6.1 0.00 0.00 0.00 32 1010.2
20260504210132 77 22 0.0 0.0 0.00 0.00 0.00 32 1010.1
20260504205630 77 22 1.7 2.6 0.00 0.00 0.00 30 1010.3
20260504205127 77 22 1.7 2.6 0.00 0.00 0.00 32 1010.2
20260504204626 77 22 2.6 3.5 0.00 0.00 0.00 31 1010.3
20260504204124 77 22 1.7 5.2 0.00 0.00 0.00 31 1010.3
20260504203622 77 22 3.5 5.2 0.00 0.00 0.00 32 1010.2
20260504203120 77 22 1.7 2.6 0.00 0.00 0.00 31 1010.2
20260504202619 77 22 2.6 3.5 0.00 0.00 0.00 31 1010.5
20260504202116 77 22 1.7 2.6 0.00 0.00 0.00 31 1010.4
20260504201613 77 22 0.9 0.9 0.00 0.00 0.00 30 1010.8
20260504201111 77 22 1.7 2.6 0.00 0.00 0.00 33 1010.6
20260504200608 77 22 3.5 3.5 0.00 0.00 0.00 31 1010.7
20260504200104 77 22 3.5 3.5 0.00 0.00 0.00 30 1010.7
20260504195600 76 22 2.6 2.6 0.00 0.00 0.00 32 1010.9
20260504195057 76 22 0.9 6.1 0.00 0.00 0.00 31 1010.8
20260504194554 76 22 5.2 12.2 0.00 0.00 0.00 31 1010.8
20260504194049 77 22 2.6 3.5 0.00 0.00 0.00 31 1011.1
20260504193546 75 22 1.7 2.6 0.00 0.00 0.00 33 1010.9
20260504193045 76 22 5.2 6.1 0.00 0.00 0.00 31 1011.2
20260504192543 75 22 1.7 1.7 0.00 0.00 0.00 33 1011.3
20260504192040 75 22 0.9 1.7 0.00 0.00 0.00 33 1011.4
20260504191538 75 22 2.6 5.2 0.00 0.00 0.00 32 1011.5
20260504191034 76 22 5.2 6.1 0.00 0.00 0.00 31 1011.7
20260504190530 75 22 0.9 0.9 0.00 0.00 0.00 34 1011.6
20260504190026 75 23 5.2 7.8 0.00 0.00 0.00 32 1011.9
20260504185524 75 22 0.0 0.0 0.00 0.00 0.00 32 1011.8
20260504185020 75 23 6.1 8.7 0.00 0.00 0.00 33 1012.0
20260504184515 74 23 0.9 1.7 0.00 0.00 0.00 34 1012.3
20260504184011 75 23 7.0 8.7 0.00 0.00 0.00 33 1012.5
20260504183508 75 23 1.7 6.1 0.00 0.00 0.00 32 1012.4
20260504183007 74 23 3.5 6.1 0.00 0.00 0.00 34 1012.3
20260504182503 73 23 5.2 6.1 0.00 0.00 0.00 33 1012.3
20260504182000 75 23 6.1 7.8 0.00 0.00 0.00 31 1012.5
20260504181457 73 23 1.7 1.7 0.00 0.00 0.00 35 1012.4
20260504180956 73 23 1.7 1.7 0.00 0.00 0.00 35 1012.4
20260504180454 73 23 2.6 2.6 0.00 0.00 0.00 35 1012.9
20260504175952 73 23 3.5 7.0 0.00 0.00 0.00 34 1012.9
20260504175449 73 23 2.6 6.1 0.00 0.00 0.00 35 1012.7
20260504174947 73 23 2.6 2.6 0.00 0.00 0.00 33 1012.8
20260504174444 73 23 0.9 1.7 0.00 0.00 0.00 34 1012.9
20260504173941 72 23 2.6 3.5 0.00 0.00 0.00 35 1013.0
20260504173437 73 23 5.2 7.8 0.00 0.00 0.00 34 1013.0
20260504172935 72 23 2.6 2.6 0.00 0.00 0.00 34 1013.0
20260504172431 72 23 1.7 1.7 0.00 0.00 0.00 32 1013.2
20260504171928 72 23 3.5 5.2 0.00 0.00 0.00 33 1013.3
20260504171425 71 23 2.6 3.5 0.00 0.00 0.00 34 1013.3
20260504170922 71 23 3.5 3.5 0.00 0.00 0.00 33 1013.4
20260504170418 71 23 3.5 5.2 0.00 0.00 0.00 32 1013.2
20260504160337 70 23 0.9 1.7 0.00 0.00 0.00 33 1014.1
20260504150802 69 23 2.6 2.6 0.00 0.00 0.00 33 1014.5
20260504150258 68 23 0.9 0.9 0.00 0.00 0.00 38 1014.7
20260504141228 65 23 0.0 0.0 0.00 0.00 0.00 40 1014.8
20260504140725 64 23 0.9 0.9 0.00 0.00 0.00 38 1014.9
20260504140220 64 23 0.9 0.9 0.00 0.00 0.00 38 1014.7
20260504130649 59 23 0.9 1.7 0.00 0.00 0.00 47 1015.2
20260504130145 59 23 3.5 3.5 0.00 0.00 0.00 45 1015.3
20260504120110 52 24 0.0 0.0 0.00 0.00 0.00 63 1015.8
20260504110537 45 24 0.0 0.0 0.00 0.00 0.00 81 1015.6
20260504100459 45 24 0.0 0.0 0.00 0.00 0.00 80 1015.5
20260504081857 45 24 0.0 0.0 0.00 0.00 0.00 82 1016.0
20260504081354 45 24 0.0 0.0 0.00 0.00 0.00 82 1016.0
20260504080850 44 24 0.0 0.0 0.00 0.00 0.00 80 1015.9
20260504080347 44 24 0.0 0.0 0.00 0.00 0.00 78 1016.0